Date,TemperatureHighF,TemperatureAvgF,TemperatureLowF,DewpointHighF,DewpointAvgF,DewpointLowF,HumidityHigh,HumidityAvg,HumidityLow,PressureMaxIn,PressureMinIn,WindSpeedMaxMPH,WindSpeedAvgMPH,GustSpeedMaxMPH,PrecipitationSumIn
2013-1-1,33,24,18,27,15,8,86,70,53,30.32,30.15,13,4,18,0.00
2013-1-2,26,22,17,17,14,11,87,75,66,30.46,30.27,16,6,21,0.00
2013-1-3,31,24,17,28,20,12,96,87,76,30.46,30.23,19,5,27,0.00
2013-1-4,33,30,27,26,24,19,87,79,74,30.34,30.16,39,13,44,0.00
2013-1-5,34,31,29,28,25,22,90,81,72,30.56,30.32,19,7,22,0.00
2013-1-6,36,34,31,34,32,24,98,94,74,30.39,30.16,18,7,23,0.00
2013-1-7,34,30,25,30,24,19,91,82,73,30.67,30.34,18,6,20,0.00
2013-1-8,37,33,29,31,27,23,99,82,74,30.58,30.43,18,5,20,0.00
2013-1-9,45,39,30,37,31,23,82,74,58,30.65,30.25,31,9,39,0.00
2013-1-10,42,36,32,29,27,24,84,72,57,30.88,30.61,13,3,14,0.00
2013-1-11,51,43,33,47,38,26,91,83,69,30.68,30.11,16,4,19,0.06
2013-1-12,59,53,49,52,48,45,91,85,73,30.27,30.19,16,6,19,0.00
2013-1-13,64,53,44,55,50,44,100,91,74,30.23,30.00,26,6,32,0.46
2013-1-14,45,32,26,44,26,18,100,79,65,30.68,30.03,18,6,22,0.02
2013-1-15,30,28,25,23,20,17,87,76,63,30.68,30.42,12,3,13,0.00
2013-1-16,36,32,28,29,24,18,86,75,65,30.47,30.05,22,6,26,0.00
2013-1-17,35,25,15,29,18,12,95,79,71,30.44,30.11,24,6,27,0.00
2013-1-18,34,22,14,20,13,5,98,72,56,30.71,30.28,22,6,24,0.00
2013-1-19,47,42,34,31,26,18,64,56,46,30.31,29.84,26,11,34,0.00
2013-1-20,47,30,18,35,17,7,86,63,48,30.37,29.75,39,12,45,0.00
2013-1-21,20,17,11,15,8,-2,94,71,53,30.36,30.13,15,4,18,0.00
2013-1-22,12,8,5,0,-4,-7,69,60,52,30.46,30.18,27,8,27,0.00
2013-1-23,14,10,5,6,-1,-5,80,63,47,30.49,30.36,12,4,16,0.00
2013-1-24,16,12,6,15,6,-1,98,80,61,30.79,30.35,12,2,15,0.02
2013-1-25,17,12,6,11,6,-1,95,82,64,30.79,30.33,7,2,9,0.00
2013-1-26,25,18,10,17,12,8,96,81,61,30.67,30.34,8,2,11,0.00
2013-1-27,29,22,13,22,16,11,100,81,62,30.82,30.58,10,2,11,0.00
2013-1-28,42,35,26,42,33,16,100,94,64,30.62,30.11,18,5,23,0.26
2013-1-29,59,44,35,55,43,35,100,98,85,30.31,29.96,13,4,16,0.60
2013-1-30,65,58,50,57,51,46,100,78,62,29.99,29.31,22,8,37,0.36
2013-1-31,54,28,21,47,20,8,97,73,46,30.00,29.31,36,14,42,0.24